• In Czech Republic
  • List of Countries
  • For 7 days
  • Water Temperature
  • Satellite Maps
  • Weather Map
  • Weather Widgets
  • user-avatar
    Login

    Hourly Weather Bobrovo

    Today, 23 July, Monday

    Time Temperature Precipitation Wind Pressure Humidity
    00:00 +17°C° 0 mm 5 mps 743 mmHg 91%
    01:00 +17°C° 0.1 mm 5 mps 743 mmHg 91%
    02:00 +17°C° 0.1 mm 5 mps 743 mmHg 91%
    03:00 +17°C° 0 mm 4 mps 744 mmHg 92%
    04:00 +17°C° 0.3 mm 4 mps 744 mmHg 91%
    05:00 +16°C° 0.3 mm 5 mps 744 mmHg 91%
    06:00 +16°C° 0.3 mm 5 mps 744 mmHg 90%
    07:00 +17°C° 0.5 mm 5 mps 744 mmHg 88%
    08:00 +19°C° 0.5 mm 5 mps 744 mmHg 86%
    09:00 +20°C° 0.5 mm 5 mps 744 mmHg 83%
    10:00 +21°C° 0.3 mm 5 mps 744 mmHg 82%
    11:00 +22°C° 0.3 mm 5 mps 744 mmHg 80%
    12:00 +23°C° 0.3 mm 6 mps 744 mmHg 79%
    13:00 +24°C° 0.4 mm 6 mps 744 mmHg 77%
    14:00 +24°C° 0.4 mm 6 mps 744 mmHg 76%
    15:00 +26°C° 0.4 mm 6 mps 744 mmHg 75%
    16:00 +26°C° 0.8 mm 6 mps 744 mmHg 77%
    17:00 +25°C° 0.8 mm 5 mps 744 mmHg 79%
    18:00 +25°C° 0.8 mm 5 mps 744 mmHg 81%
    19:00 +23°C° 0.4 mm 5 mps 744 mmHg 84%
    20:00 +22°C° 0.4 mm 5 mps 744 mmHg 87%
    21:00 +21°C° 0.4 mm 5 mps 744 mmHg 90%
    22:00 +21°C° 0 mm 5 mps 744 mmHg 90%
    23:00 +20°C° 0 mm 5 mps 744 mmHg 91%

    Tomorrow, 24 July, Tuesday

    Time Temperature Precipitation Wind Pressure Humidity
    00:00 +20°C° 0 mm 5 mps 744 mmHg 91%
    01:00 +20°C° 0 mm 5 mps 744 mmHg 90%
    02:00 +19°C° 0 mm 5 mps 745 mmHg 89%
    03:00 +19°C° 0 mm 5 mps 745 mmHg 88%
    04:00 +19°C° 0 mm 5 mps 745 mmHg 88%
    05:00 +19°C° 0 mm 4 mps 745 mmHg 88%
    06:00 +19°C° 0 mm 4 mps 745 mmHg 89%
    07:00 +20°C° 0.1 mm 4 mps 746 mmHg 85%
    08:00 +22°C° 0.1 mm 4 mps 746 mmHg 82%
    09:00 +23°C° 0.1 mm 4 mps 746 mmHg 79%
    10:00 +25°C° 0.5 mm 5 mps 746 mmHg 76%
    11:00 +26°C° 0.5 mm 5 mps 747 mmHg 73%
    12:00 +27°C° 0.5 mm 6 mps 747 mmHg 71%
    13:00 +27°C° 0.5 mm 6 mps 747 mmHg 71%
    14:00 +27°C° 0.5 mm 6 mps 747 mmHg 70%
    15:00 +27°C° 0.5 mm 6 mps 747 mmHg 70%
    16:00 +26°C° 0.1 mm 6 mps 747 mmHg 72%
    17:00 +23°C° 0.1 mm 5 mps 747 mmHg 74%
    18:00 +22°C° 0.1 mm 5 mps 748 mmHg 76%
    19:00 +22°C° 0 mm 4 mps 748 mmHg 75%
    20:00 +21°C° 0 mm 4 mps 748 mmHg 74%
    21:00 +21°C° 0 mm 4 mps 748 mmHg 73%
    22:00 +20°C° 0 mm 4 mps 748 mmHg 74%
    23:00 +19°C° 0 mm 4 mps 749 mmHg 74%

    Day after tomorrow, 25 July, Wednesday

    Time Temperature Precipitation Wind Pressure Humidity
    00:00 +18°C° 0 mm 4 mps 749 mmHg 74%
    01:00 +18°C° 0 mm 4 mps 748 mmHg 71%
    02:00 +18°C° 0 mm 4 mps 748 mmHg 68%
    03:00 +18°C° 0 mm 4 mps 748 mmHg 65%
    04:00 +18°C° 0.1 mm 4 mps 748 mmHg 64%
    05:00 +19°C° 0.1 mm 5 mps 748 mmHg 63%
    06:00 +19°C° 0.1 mm 5 mps 748 mmHg 62%
    07:00 +17°C° 0.4 mm 6 mps 748 mmHg 68%
    08:00 +17°C° 0.4 mm 6 mps 748 mmHg 74%
    09:00 +17°C° 0.4 mm 6 mps 749 mmHg 80%
    10:00 +19°C° 0.5 mm 6 mps 749 mmHg 79%
    11:00 +20°C° 0.5 mm 6 mps 749 mmHg 77%
    12:00 +21°C° 0.5 mm 6 mps 749 mmHg 76%
    13:00 +23°C° 0.1 mm 6 mps 749 mmHg 70%
    14:00 +26°C° 0.1 mm 7 mps 749 mmHg 64%
    15:00 +28°C° 0.1 mm 7 mps 749 mmHg 58%
    16:00 +27°C° 0 mm 6 mps 749 mmHg 61%
    17:00 +26°C° 0 mm 5 mps 749 mmHg 63%
    18:00 +26°C° 0 mm 4 mps 749 mmHg 66%
    19:00 +25°C° 0 mm 4 mps 749 mmHg 67%
    20:00 +23°C° 0 mm 4 mps 749 mmHg 68%
    21:00 +21°C° 0 mm 4 mps 749 mmHg 69%
    22:00 +21°C° 0 mm 5 mps 749 mmHg 68%
    23:00 +21°C° 0 mm 5 mps 750 mmHg 68%

    26 July, Thursday

    Time Temperature Precipitation Wind Pressure Humidity
    00:00 +21°C° 0 mm 5 mps 750 mmHg 68%
    01:00 +21°C° 0 mm 5 mps 750 mmHg 67%
    02:00 +21°C° 0 mm 5 mps 750 mmHg 66%
    03:00 +22°C° 0 mm 5 mps 749 mmHg 65%
    04:00 +21°C° 0 mm 5 mps 750 mmHg 67%
    05:00 +21°C° 0 mm 5 mps 750 mmHg 68%
    06:00 +21°C° 0 mm 4 mps 750 mmHg 70%
    07:00 +22°C° 0 mm 5 mps 750 mmHg 68%
    08:00 +25°C° 0 mm 5 mps 750 mmHg 65%
    09:00 +26°C° 0 mm 6 mps 751 mmHg 62%
    10:00 +27°C° 0 mm 6 mps 751 mmHg 60%
    11:00 +28°C° 0 mm 6 mps 751 mmHg 59%
    12:00 +29°C° 0 mm 6 mps 751 mmHg 57%
    13:00 +30°C° 0 mm 6 mps 751 mmHg 56%
    14:00 +30°C° 0 mm 7 mps 751 mmHg 56%
    15:00 +32°C° 0 mm 7 mps 751 mmHg 55%
    16:00 +30°C° 0 mm 6 mps 751 mmHg 59%
    17:00 +30°C° 0 mm 5 mps 751 mmHg 62%
    18:00 +29°C° 0 mm 4 mps 751 mmHg 66%
    19:00 +28°C° 0 mm 4 mps 751 mmHg 68%
    20:00 +27°C° 0 mm 4 mps 752 mmHg 70%
    21:00 +25°C° 0 mm 4 mps 752 mmHg 71%
    22:00 +25°C° 0 mm 4 mps 752 mmHg 71%
    23:00 +23°C° 0 mm 4 mps 752 mmHg 71%

    27 July, Friday

    Time Temperature Precipitation Wind Pressure Humidity
    00:00 +23°C° 0 mm 4 mps 752 mmHg 70%
    01:00 +22°C° 0 mm 4 mps 752 mmHg 69%
    02:00 +22°C° 0 mm 4 mps 752 mmHg 68%
    03:00 +21°C° 0 mm 4 mps 753 mmHg 67%
    04:00 +21°C° 0 mm 3 mps 753 mmHg 70%
    05:00 +21°C° 0 mm 3 mps 753 mmHg 73%
    06:00 +21°C° 0 mm 3 mps 753 mmHg 76%
    07:00 +22°C° 0 mm 3 mps 753 mmHg 74%
    08:00 +24°C° 0 mm 3 mps 753 mmHg 72%
    09:00 +25°C° 0 mm 3 mps 752 mmHg 70%
    10:00 +26°C° 0 mm 4 mps 753 mmHg 66%
    11:00 +27°C° 0 mm 5 mps 753 mmHg 61%
    12:00 +28°C° 0 mm 5 mps 753 mmHg 57%
    13:00 +29°C° 0 mm 5 mps 752 mmHg 56%
    14:00 +29°C° 0 mm 5 mps 752 mmHg 56%
    15:00 +29°C° 0 mm 5 mps 752 mmHg 56%
    16:00 +29°C° 0 mm 4 mps 752 mmHg 60%
    17:00 +28°C° 0 mm 3 mps 752 mmHg 64%
    18:00 +28°C° 0 mm 3 mps 752 mmHg 68%
    19:00 +27°C° 0 mm 2 mps 752 mmHg 71%
    20:00 +25°C° 0 mm 2 mps 752 mmHg 73%
    21:00 +24°C° 0 mm 2 mps 752 mmHg 76%
    22:00 +24°C° 0 mm 2 mps 752 mmHg 76%
    23:00 +23°C° 0 mm 2 mps 752 mmHg 76%

    28 July, Saturday

    Time Temperature Precipitation Wind Pressure Humidity
    00:00 +22°C° 0 mm 3 mps 752 mmHg 76%
    01:00 +21°C° 0 mm 2 mps 752 mmHg 75%
    02:00 +21°C° 0 mm 2 mps 751 mmHg 74%
    03:00 +20°C° 0 mm 2 mps 751 mmHg 73%
    04:00 +21°C° 0 mm 3 mps 751 mmHg 73%
    05:00 +21°C° 0 mm 3 mps 751 mmHg 73%
    06:00 +21°C° 0 mm 3 mps 751 mmHg 72%
    07:00 +22°C° 0 mm 3 mps 751 mmHg 68%
    08:00 +25°C° 0 mm 3 mps 751 mmHg 64%
    09:00 +26°C° 0 mm 3 mps 751 mmHg 60%
    10:00 +28°C° 0 mm 4 mps 751 mmHg 57%
    11:00 +29°C° 0 mm 4 mps 751 mmHg 53%
    12:00 +30°C° 0 mm 4 mps 751 mmHg 50%
    13:00 +30°C° 0 mm 4 mps 751 mmHg 49%
    14:00 +32°C° 0 mm 4 mps 750 mmHg 49%
    15:00 +31°C° 0 mm 3 mps 750 mmHg 48%
    16:00 +30°C° 0 mm 3 mps 750 mmHg 53%
    17:00 +30°C° 0 mm 3 mps 750 mmHg 57%
    18:00 +29°C° 0 mm 2 mps 750 mmHg 61%
    19:00 +27°C° 0 mm 2 mps 750 mmHg 65%
    20:00 +25°C° 0 mm 2 mps 750 mmHg 70%
    21:00 +24°C° 0 mm 2 mps 750 mmHg 74%
    22:00 +23°C° 0 mm 2 mps 750 mmHg 76%
    23:00 +23°C° 0 mm 2 mps 750 mmHg 77%
    Show more